TimeCST,TemperatureF,Dew PointF,Humidity,Sea Level PressureIn,VisibilityMPH,Wind Direction,Wind SpeedMPH,Gust SpeedMPH,PrecipitationIn,Events,Conditions,WindDirDegrees,DateUTC
12:15 AM,42.8,32.0,66,30.18,10.0,South,5.8,-,N/A,,Clear,180,2012-11-09 06:15:00
12:55 AM,41.0,30.2,65,30.18,10.0,SE,5.8,-,N/A,,Clear,140,2012-11-09 06:55:00
1:15 AM,42.8,32.0,66,30.18,10.0,SSE,3.5,-,N/A,,Clear,150,2012-11-09 07:15:00
1:35 AM,42.8,30.2,61,30.18,10.0,South,3.5,-,N/A,,Clear,180,2012-11-09 07:35:00
1:55 AM,42.8,32.0,66,30.19,10.0,South,4.6,-,N/A,,Clear,170,2012-11-09 07:55:00
2:15 AM,42.8,32.0,66,30.19,10.0,South,4.6,-,N/A,,Clear,170,2012-11-09 08:15:00
2:35 AM,41.0,30.2,65,30.19,10.0,Calm,Calm,-,N/A,,Clear,0,2012-11-09 08:35:00
3:15 AM,37.4,28.4,70,30.20,10.0,Calm,Calm,-,N/A,,Clear,0,2012-11-09 09:15:00
3:35 AM,37.4,28.4,70,30.20,10.0,Calm,Calm,-,N/A,,Clear,0,2012-11-09 09:35:00
3:55 AM,39.2,30.2,70,30.20,10.0,South,3.5,-,N/A,,Clear,180,2012-11-09 09:55:00
4:15 AM,41.0,30.2,65,30.20,10.0,SSE,3.5,-,N/A,,Clear,160,2012-11-09 10:15:00
4:35 AM,42.8,32.0,66,30.20,10.0,SSE,3.5,-,N/A,,Clear,160,2012-11-09 10:35:00
4:55 AM,42.8,32.0,66,30.20,10.0,South,5.8,-,N/A,,Clear,170,2012-11-09 10:55:00
5:55 AM,44.6,32.0,61,30.21,10.0,South,6.9,-,N/A,,Clear,170,2012-11-09 11:55:00
6:15 AM,42.8,32.0,66,30.21,10.0,SSE,6.9,-,N/A,,Clear,160,2012-11-09 12:15:00
6:36 AM,42.8,32.0,66,30.21,10.0,SSE,6.9,-,N/A,,Clear,160,2012-11-09 12:36:00
6:55 AM,42.8,32.0,66,30.21,10.0,South,9.2,-,N/A,,Clear,170,2012-11-09 12:55:00
7:15 AM,44.6,33.8,66,30.22,10.0,South,6.9,-,N/A,,Clear,170,2012-11-09 13:15:00
7:35 AM,44.6,33.8,66,30.22,10.0,South,6.9,-,N/A,,Clear,170,2012-11-09 13:35:00
7:55 AM,46.4,35.6,66,30.23,10.0,South,5.8,-,N/A,,Clear,170,2012-11-09 13:55:00
8:15 AM,48.2,35.6,62,30.23,10.0,South,4.6,-,N/A,,Clear,170,2012-11-09 14:15:00
8:35 AM,50.0,35.6,58,30.22,10.0,SSE,5.8,-,N/A,,Clear,150,2012-11-09 14:35:00
9:15 AM,53.6,39.2,58,30.23,10.0,SSE,4.6,-,N/A,,Partly Cloudy,150,2012-11-09 15:15:00
9:35 AM,57.2,39.2,51,30.22,10.0,South,5.8,-,N/A,,Clear,190,2012-11-09 15:35:00
9:55 AM,60.8,41.0,48,30.22,10.0,South,5.8,-,N/A,,Clear,180,2012-11-09 15:55:00
10:15 AM,62.6,42.8,48,30.21,10.0,South,4.6,-,N/A,,Clear,190,2012-11-09 16:15:00
10:35 AM,64.4,42.8,45,30.21,10.0,SSE,4.6,-,N/A,,Clear,160,2012-11-09 16:35:00
11:15 AM,66.2,42.8,43,30.19,10.0,South,6.9,-,N/A,,Clear,190,2012-11-09 17:15:00
11:35 AM,68.0,42.8,40,30.18,10.0,South,9.2,-,N/A,,Clear,180,2012-11-09 17:35:00
11:55 AM,68.0,42.8,40,30.17,10.0,South,9.2,-,N/A,,Clear,180,2012-11-09 17:55:00
12:15 PM,69.8,44.6,40,30.16,10.0,South,9.2,17.3,N/A,,Clear,180,2012-11-09 18:15:00
12:36 PM,69.8,46.4,43,30.15,10.0,South,8.1,-,N/A,,Clear,180,2012-11-09 18:36:00
12:55 PM,71.6,46.4,41,30.14,10.0,South,10.4,16.1,N/A,,Clear,190,2012-11-09 18:55:00
1:15 PM,71.6,48.2,43,30.13,10.0,SSW,10.4,16.1,N/A,,Clear,210,2012-11-09 19:15:00
1:55 PM,71.6,48.2,43,30.12,10.0,SW,10.4,-,N/A,,Clear,220,2012-11-09 19:55:00
2:15 PM,71.6,48.2,43,30.12,10.0,South,9.2,-,N/A,,Clear,180,2012-11-09 20:15:00
2:35 PM,71.6,48.2,43,30.11,10.0,SSW,5.8,16.1,N/A,,Clear,200,2012-11-09 20:35:00
2:55 PM,71.6,48.2,43,30.11,10.0,South,9.2,16.1,N/A,,Clear,180,2012-11-09 20:55:00
3:35 PM,71.6,48.2,43,30.11,10.0,South,8.1,-,N/A,,Clear,180,2012-11-09 21:35:00
3:55 PM,69.8,48.2,46,30.11,10.0,SSW,10.4,-,N/A,,Clear,200,2012-11-09 21:55:00
4:15 PM,69.8,46.4,43,30.11,10.0,South,5.8,-,N/A,,Clear,190,2012-11-09 22:15:00
4:36 PM,68.0,46.4,46,30.11,10.0,South,5.8,-,N/A,,Clear,180,2012-11-09 22:36:00
4:55 PM,66.2,46.4,49,30.10,10.0,South,5.8,-,N/A,,Clear,170,2012-11-09 22:55:00
5:15 PM,64.4,44.6,49,30.11,10.0,SSE,4.6,-,N/A,,Clear,160,2012-11-09 23:15:00
5:35 PM,62.6,44.6,52,30.11,10.0,SSE,5.8,-,N/A,,Clear,150,2012-11-09 23:35:00
5:55 PM,62.6,42.8,48,30.11,10.0,South,5.8,-,N/A,,Clear,170,2012-11-09 23:55:00
6:15 PM,62.6,41.0,45,30.11,10.0,SSE,5.8,-,N/A,,Clear,160,2012-11-10 00:15:00
6:35 PM,62.6,39.2,42,30.12,10.0,SSE,5.8,-,N/A,,Clear,150,2012-11-10 00:35:00
7:15 PM,62.6,37.4,39,30.11,10.0,SSE,6.9,-,N/A,,Clear,160,2012-11-10 01:15:00
7:35 PM,62.6,37.4,39,30.12,10.0,SSE,9.2,-,N/A,,Clear,160,2012-11-10 01:35:00
7:55 PM,60.8,37.4,42,30.12,10.0,South,9.2,-,N/A,,Clear,170,2012-11-10 01:55:00
8:35 PM,59.0,37.4,45,30.13,10.0,SSE,8.1,-,N/A,,Clear,160,2012-11-10 02:35:00
8:55 PM,57.2,37.4,48,30.13,10.0,South,6.9,-,N/A,,Clear,170,2012-11-10 02:55:00
9:15 PM,57.2,37.4,48,30.13,10.0,South,6.9,-,N/A,,Clear,170,2012-11-10 03:15:00
9:35 PM,57.2,37.4,48,30.13,10.0,SSE,6.9,-,N/A,,Clear,160,2012-11-10 03:35:00
9:55 PM,57.2,37.4,48,30.14,10.0,South,6.9,-,N/A,,Clear,170,2012-11-10 03:55:00
10:15 PM,55.4,37.4,51,30.14,10.0,SSE,5.8,-,N/A,,Clear,160,2012-11-10 04:15:00
10:55 PM,55.4,37.4,51,30.14,10.0,South,5.8,-,N/A,,Clear,170,2012-11-10 04:55:00
11:15 PM,53.6,37.4,54,30.15,10.0,SSW,3.5,-,N/A,,Clear,200,2012-11-10 05:15:00
11:35 PM,53.6,37.4,54,30.15,10.0,South,3.5,-,N/A,,Clear,170,2012-11-10 05:35:00
11:55 PM,53.6,37.4,54,30.15,10.0,SSE,4.6,-,N/A,,Clear,160,2012-11-10 05:55:00